IGO6946 VISR-VOBL

Flight info

Callsign IGO6946
Flight time N/A
Altitude 35000
Route SGR W21 PANLA W23 BIKUX DCT PK DCT CHG J21 DPN/N0453F340 Q23 AKRIB/N0454F350 Z16 BULDI W19 BPL/N0389F250 J3 UPTAR/N0413F290 W20 TAMID/N0390F250 J3 HIA/N0453F350 Q21 LURGI/N0455F360 Q21 TELUV TELUV7E
Aircraft A21N/M-SDE2E3FGHIRWXY/LB1

Departure

Time N/A
Airport Sheikh ul Alam International Airport (VISR)

Arrival

Time 2026-04-29 07:44
Airport Kempegowda International Airport Bengaluru (VOBL)
Time Latitude Longitude Altitude Speed Heading
2026-04-29 06:03 25.63734 76.87740 34777 ft 502 kts 184°
2026-04-29 06:03 25.60231 76.87891 34782 ft 502 kts 184°
2026-04-29 06:03 25.53243 76.88194 34793 ft 502 kts 184°
2026-04-29 06:04 25.46232 76.88494 34791 ft 503 kts 184°
2026-04-29 06:04 25.39228 76.88796 34800 ft 503 kts 184°
2026-04-29 06:05 25.32218 76.89100 34806 ft 503 kts 184°
2026-04-29 06:05 25.25191 76.89401 34803 ft 503 kts 184°
2026-04-29 06:06 25.18174 76.89704 34807 ft 503 kts 184°
2026-04-29 06:06 25.11145 76.90003 34802 ft 504 kts 183°
2026-04-29 06:07 25.04090 76.90305 34801 ft 505 kts 183°
2026-04-29 06:07 24.97075 76.90611 34799 ft 505 kts 183°
2026-04-29 06:08 24.90009 76.90923 34799 ft 505 kts 183°
2026-04-29 06:08 24.83004 76.91232 34799 ft 505 kts 183°
2026-04-29 06:09 24.75948 76.91543 34802 ft 505 kts 183°
2026-04-29 06:09 24.68943 76.91851 34801 ft 505 kts 184°
2026-04-29 06:10 24.61895 76.92157 34808 ft 505 kts 183°
2026-04-29 06:10 24.54844 76.92466 34811 ft 505 kts 183°
2026-04-29 06:11 24.47843 76.92796 34820 ft 506 kts 181°
2026-04-29 06:11 24.40775 76.93758 34819 ft 511 kts 174°
2026-04-29 06:12 24.33829 76.95675 34827 ft 516 kts 166°
2026-04-29 06:12 24.26987 76.98171 34831 ft 516 kts 165°
2026-04-29 06:13 24.20196 77.00665 34836 ft 516 kts 165°
2026-04-29 06:13 24.13357 77.03149 34831 ft 516 kts 165°
2026-04-29 06:14 24.06511 77.05624 34821 ft 517 kts 165°
2026-04-29 06:14 23.99680 77.08085 34817 ft 517 kts 165°
2026-04-29 06:15 23.92858 77.10543 34816 ft 516 kts 165°
2026-04-29 06:15 23.86016 77.13000 34819 ft 516 kts 165°
2026-04-29 06:16 23.79211 77.15436 34822 ft 515 kts 165°
2026-04-29 06:16 23.72374 77.17889 34827 ft 516 kts 165°
2026-04-29 06:17 23.65570 77.20325 34830 ft 516 kts 165°
2026-04-29 06:17 23.58743 77.22773 34839 ft 516 kts 165°
2026-04-29 06:18 23.51940 77.25210 34849 ft 515 kts 165°
2026-04-29 06:18 23.45112 77.27652 34849 ft 515 kts 165°
2026-04-29 06:19 23.38305 77.30086 34854 ft 515 kts 165°
2026-04-29 06:19 23.31449 77.32525 34853 ft 515 kts 165°
2026-04-29 06:20 23.24538 77.34428 34851 ft 511 kts 173°
2026-04-29 06:20 23.17577 77.35802 34849 ft 510 kts 173°
2026-04-29 06:21 23.10567 77.37160 34856 ft 509 kts 173°
2026-04-29 06:21 23.03596 77.38524 34855 ft 509 kts 173°
2026-04-29 06:22 22.96617 77.39898 34855 ft 510 kts 173°
2026-04-29 06:22 22.89587 77.41283 34853 ft 510 kts 173°
2026-04-29 06:23 22.82589 77.42657 34853 ft 510 kts 173°
2026-04-29 06:23 22.75630 77.44022 34847 ft 509 kts 173°
2026-04-29 06:24 22.68647 77.45393 34835 ft 509 kts 173°
2026-04-29 06:24 22.61681 77.46759 34830 ft 508 kts 173°
2026-04-29 06:25 22.54709 77.48126 34828 ft 510 kts 173°
2026-04-29 06:25 22.47740 77.49492 34823 ft 509 kts 173°
2026-04-29 06:26 22.40784 77.50853 34828 ft 508 kts 173°
2026-04-29 06:26 22.33793 77.52220 34836 ft 507 kts 173°
2026-04-29 06:27 22.26844 77.53578 34845 ft 508 kts 173°
2026-04-29 06:27 22.19887 77.54939 34857 ft 507 kts 173°
2026-04-29 06:28 22.12935 77.56296 34873 ft 508 kts 173°
2026-04-29 06:28 22.05986 77.57637 34891 ft 506 kts 173°
2026-04-29 06:29 21.99027 77.58969 34910 ft 507 kts 173°
2026-04-29 06:29 21.92117 77.60299 34915 ft 506 kts 173°
2026-04-29 06:30 21.81697 77.62299 34912 ft 505 kts 173°
2026-04-29 06:31 21.74737 77.63635 34912 ft 505 kts 173°
2026-04-29 06:31 21.67824 77.64965 34915 ft 504 kts 173°
2026-04-29 06:32 21.60920 77.66316 34926 ft 504 kts 173°
2026-04-29 06:32 21.53967 77.67667 34934 ft 503 kts 174°
2026-04-29 06:33 21.47103 77.69006 34939 ft 503 kts 173°
2026-04-29 06:33 21.40194 77.70402 34912 ft 503 kts 173°
2026-04-29 06:34 21.33314 77.71793 34886 ft 502 kts 173°
2026-04-29 06:34 21.26423 77.73178 34858 ft 501 kts 173°
2026-04-29 06:35 21.19575 77.74552 34839 ft 500 kts 173°
2026-04-29 06:35 21.12746 77.75920 34834 ft 500 kts 173°
2026-04-29 06:36 21.05878 77.77296 34828 ft 499 kts 173°
2026-04-29 06:36 20.99033 77.78667 34825 ft 499 kts 173°
2026-04-29 06:37 20.92213 77.80028 34826 ft 498 kts 173°
2026-04-29 06:37 20.85362 77.81441 34825 ft 498 kts 173°
2026-04-29 06:38 20.78590 77.82856 34826 ft 497 kts 172°
2026-04-29 06:38 20.71790 77.84273 34827 ft 498 kts 172°
2026-04-29 06:39 20.64966 77.85660 34841 ft 498 kts 173°
2026-04-29 06:39 20.58147 77.86970 34850 ft 497 kts 173°
2026-04-29 06:40 20.51295 77.88284 34851 ft 497 kts 173°
2026-04-29 06:40 20.44513 77.89591 34852 ft 496 kts 173°
2026-04-29 06:41 20.37653 77.90913 34844 ft 496 kts 173°
2026-04-29 06:41 20.30867 77.92221 34837 ft 496 kts 173°
2026-04-29 06:42 20.24031 77.93538 34832 ft 497 kts 173°
2026-04-29 06:42 20.17199 77.94852 34829 ft 496 kts 174°
2026-04-29 06:43 20.10375 77.96163 34832 ft 496 kts 173°
2026-04-29 06:43 20.03599 77.97468 34826 ft 495 kts 173°
2026-04-29 06:44 19.96798 77.98772 34828 ft 495 kts 173°
2026-04-29 06:44 19.90036 78.00068 34828 ft 495 kts 173°
2026-04-29 06:45 19.83234 78.01369 34829 ft 495 kts 174°
2026-04-29 06:45 19.76427 78.02668 34833 ft 496 kts 174°
2026-04-29 06:46 19.69634 78.03966 34835 ft 496 kts 173°
2026-04-29 06:46 19.62870 78.05259 34832 ft 496 kts 173°
2026-04-29 06:47 19.56056 78.06560 34835 ft 495 kts 173°
2026-04-29 06:47 19.49278 78.07854 34843 ft 495 kts 173°
2026-04-29 06:48 19.42487 78.09152 34839 ft 495 kts 173°
2026-04-29 06:48 19.35692 78.10445 34837 ft 495 kts 173°
2026-04-29 06:49 19.28917 78.11736 34837 ft 495 kts 173°
2026-04-29 06:49 19.22113 78.12900 34841 ft 494 kts 176°
2026-04-29 06:50 19.15287 78.13852 34836 ft 493 kts 176°
2026-04-29 06:50 19.08456 78.14796 34825 ft 493 kts 176°
2026-04-29 06:51 19.01645 78.15743 34828 ft 493 kts 176°
2026-04-29 06:51 18.94849 78.16690 34827 ft 493 kts 176°
2026-04-29 06:52 18.88041 78.17640 34827 ft 493 kts 176°
2026-04-29 06:52 18.81205 78.18589 34845 ft 493 kts 176°
2026-04-29 06:53 18.74409 78.19534 34839 ft 492 kts 176°
2026-04-29 06:53 18.67594 78.20480 34852 ft 492 kts 176°
2026-04-29 06:54 18.60793 78.21427 34852 ft 491 kts 176°
2026-04-29 06:54 18.53997 78.22372 34854 ft 491 kts 176°
2026-04-29 06:55 18.47194 78.23314 34857 ft 491 kts 176°
2026-04-29 06:55 18.40442 78.24250 34877 ft 491 kts 176°
2026-04-29 06:56 18.33673 78.25188 34878 ft 490 kts 176°
2026-04-29 06:56 18.26914 78.26123 34890 ft 489 kts 176°
2026-04-29 06:57 18.20155 78.27060 34899 ft 489 kts 176°
2026-04-29 06:57 18.13384 78.27997 34902 ft 488 kts 176°
2026-04-29 06:58 18.06657 78.28928 34895 ft 488 kts 176°
2026-04-29 06:58 17.99926 78.29858 34893 ft 487 kts 176°
2026-04-29 06:59 17.93200 78.30791 34893 ft 487 kts 176°
2026-04-29 06:59 17.86455 78.31730 34889 ft 486 kts 176°
2026-04-29 07:00 17.79775 78.32658 34889 ft 486 kts 176°
2026-04-29 07:00 17.73042 78.33596 34890 ft 486 kts 176°
2026-04-29 07:01 17.66309 78.34533 34894 ft 485 kts 176°
2026-04-29 07:01 17.59631 78.35461 34897 ft 485 kts 176°
2026-04-29 07:02 17.52909 78.36397 34894 ft 485 kts 176°
2026-04-29 07:02 17.46238 78.37324 34898 ft 484 kts 176°
2026-04-29 07:03 17.39527 78.38258 34900 ft 484 kts 176°
2026-04-29 07:03 17.32852 78.39185 34899 ft 483 kts 176°
2026-04-29 07:04 17.26152 78.40117 34905 ft 483 kts 176°
2026-04-29 07:04 17.19488 78.40977 34907 ft 482 kts 178°
2026-04-29 07:05 17.12824 78.41668 34914 ft 481 kts 178°
2026-04-29 07:05 17.06149 78.42361 34914 ft 481 kts 178°
2026-04-29 07:06 16.99483 78.43067 34920 ft 481 kts 178°
2026-04-29 07:06 16.92790 78.43784 34918 ft 480 kts 178°
2026-04-29 07:07 16.86152 78.44493 34912 ft 480 kts 178°
2026-04-29 07:07 16.79504 78.45203 34903 ft 480 kts 178°
2026-04-29 07:08 16.72841 78.45915 34895 ft 479 kts 178°
2026-04-29 07:08 16.66198 78.46625 34886 ft 480 kts 178°
2026-04-29 07:09 16.59516 78.47339 34879 ft 479 kts 178°
2026-04-29 07:09 16.52906 78.48044 34871 ft 479 kts 178°
2026-04-29 07:10 16.46245 78.48755 34866 ft 479 kts 178°
2026-04-29 07:10 16.39576 78.49468 34871 ft 479 kts 178°
2026-04-29 07:11 16.32961 78.50176 34877 ft 479 kts 178°
2026-04-29 07:11 16.26329 78.50842 34878 ft 477 kts 180°
2026-04-29 07:12 16.19695 78.50923 34877 ft 473 kts 187°
2026-04-29 07:12 16.13165 78.50230 34865 ft 469 kts 193°
2026-04-29 07:13 16.06722 78.49184 34858 ft 470 kts 193°
2026-04-29 07:13 16.00245 78.48131 34847 ft 470 kts 193°
2026-04-29 07:14 15.93739 78.47082 34839 ft 469 kts 193°
2026-04-29 07:14 15.87314 78.46051 34833 ft 468 kts 193°
2026-04-29 07:15 15.80868 78.45026 34828 ft 468 kts 193°
2026-04-29 07:15 15.74430 78.43998 34829 ft 468 kts 193°
2026-04-29 07:16 15.67989 78.42966 34829 ft 468 kts 193°
2026-04-29 07:16 15.61515 78.41933 34827 ft 467 kts 193°
2026-04-29 07:17 15.55089 78.40906 34825 ft 467 kts 193°
2026-04-29 07:17 15.48657 78.39879 34818 ft 466 kts 193°
2026-04-29 07:18 15.42229 78.38854 34814 ft 466 kts 193°
2026-04-29 07:18 15.35827 78.37834 34810 ft 466 kts 193°
2026-04-29 07:19 15.29402 78.36810 34806 ft 466 kts 193°
2026-04-29 07:19 15.22965 78.35786 34802 ft 465 kts 193°
2026-04-29 07:20 15.16576 78.34759 34802 ft 465 kts 193°
2026-04-29 07:20 15.10162 78.33729 34798 ft 465 kts 193°
2026-04-29 07:21 15.03759 78.32703 34790 ft 465 kts 193°
2026-04-29 07:21 14.97321 78.31674 34786 ft 465 kts 193°
2026-04-29 07:22 14.90928 78.30653 34788 ft 465 kts 193°
2026-04-29 07:22 14.84525 78.29636 34790 ft 465 kts 193°
2026-04-29 07:23 14.78121 78.28615 34778 ft 463 kts 193°
2026-04-29 07:23 14.74943 78.28104 34426 ft 462 kts 193°
2026-04-29 07:23 14.71759 78.27594 33557 ft 466 kts 194°
2026-04-29 07:23 14.68545 78.27077 32462 ft 473 kts 194°
2026-04-29 07:24 14.65268 78.26536 31454 ft 477 kts 195°
2026-04-29 07:24 14.62013 78.25818 30500 ft 478 kts 198°
2026-04-29 07:24 14.58779 78.25009 29557 ft 480 kts 198°
2026-04-29 07:24 14.55544 78.24181 28600 ft 482 kts 198°
2026-04-29 07:25 14.52290 78.23353 27640 ft 485 kts 198°
2026-04-29 07:25 14.49020 78.22530 26715 ft 485 kts 197°
2026-04-29 07:25 14.45742 78.21715 25906 ft 482 kts 197°
2026-04-29 07:25 14.42486 78.20911 25145 ft 479 kts 196°
2026-04-29 07:26 14.39268 78.20121 24388 ft 475 kts 196°
2026-04-29 07:26 14.36058 78.19334 23760 ft 468 kts 196°
2026-04-29 07:26 14.32896 78.18562 23325 ft 458 kts 195°
2026-04-29 07:26 14.29811 78.17807 22851 ft 454 kts 195°
2026-04-29 07:27 14.26769 78.17062 22420 ft 451 kts 195°
2026-04-29 07:27 14.23718 78.16316 21983 ft 448 kts 195°
2026-04-29 07:27 14.20698 78.15578 21553 ft 445 kts 195°
2026-04-29 07:27 14.17669 78.14838 21127 ft 443 kts 195°
2026-04-29 07:28 14.14670 78.14105 20702 ft 440 kts 195°
2026-04-29 07:28 14.11688 78.13377 20275 ft 438 kts 195°
2026-04-29 07:28 14.08749 78.12660 19849 ft 436 kts 195°
2026-04-29 07:28 14.05766 78.11932 19419 ft 434 kts 195°
2026-04-29 07:29 14.02840 78.11217 18994 ft 431 kts 194°
2026-04-29 07:29 13.99926 78.10506 18569 ft 429 kts 195°
2026-04-29 07:29 13.97026 78.09799 18143 ft 427 kts 194°
2026-04-29 07:29 13.94137 78.09094 17719 ft 425 kts 194°
2026-04-29 07:30 13.91279 78.08396 17258 ft 422 kts 194°
2026-04-29 07:30 13.88417 78.07698 16817 ft 416 kts 194°
2026-04-29 07:30 13.85612 78.07017 16449 ft 407 kts 194°
2026-04-29 07:31 13.80175 78.05697 15606 ft 395 kts 193°
2026-04-29 07:31 13.77493 78.05044 15203 ft 390 kts 193°
2026-04-29 07:31 13.74885 78.04408 14823 ft 384 kts 193°
2026-04-29 07:31 13.72287 78.03776 14444 ft 378 kts 192°
2026-04-29 07:32 13.69750 78.03158 14072 ft 373 kts 192°
2026-04-29 07:32 13.67257 78.02552 13655 ft 367 kts 192°
2026-04-29 07:32 13.64777 78.01946 13190 ft 360 kts 192°
2026-04-29 07:32 13.62337 78.01352 12724 ft 354 kts 192°
2026-04-29 07:33 13.59980 78.00781 12268 ft 348 kts 191°
2026-04-29 07:33 13.57615 78.00208 11851 ft 341 kts 192°
2026-04-29 07:33 13.55347 77.99656 11434 ft 333 kts 191°
2026-04-29 07:33 13.53120 77.99116 11016 ft 324 kts 191°
2026-04-29 07:34 13.50938 77.98586 10595 ft 316 kts 192°
2026-04-29 07:34 13.48834 77.98074 10385 ft 304 kts 191°
2026-04-29 07:34 13.46794 77.97579 10249 ft 303 kts 192°
2026-04-29 07:34 13.44740 77.97081 10130 ft 302 kts 192°
2026-04-29 07:35 13.42685 77.96581 10009 ft 302 kts 191°
2026-04-29 07:35 13.40653 77.96086 9729 ft 297 kts 191°
2026-04-29 07:35 13.38659 77.95602 9408 ft 292 kts 191°
2026-04-29 07:35 13.36686 77.95126 9107 ft 286 kts 191°
2026-04-29 07:36 13.34766 77.94659 8974 ft 278 kts 192°
2026-04-29 07:36 13.32916 77.94209 8866 ft 266 kts 191°
2026-04-29 07:36 13.31118 77.93896 8636 ft 258 kts 175°
2026-04-29 07:36 13.29403 77.94273 8384 ft 246 kts 155°
2026-04-29 07:37 13.27882 77.94972 8167 ft 235 kts 152°
2026-04-29 07:37 13.26450 77.95670 8142 ft 221 kts 152°
2026-04-29 07:37 13.25064 77.96339 7948 ft 217 kts 152°
2026-04-29 07:37 13.23688 77.96989 7775 ft 218 kts 153°
2026-04-29 07:38 13.22299 77.97631 7522 ft 218 kts 155°
2026-04-29 07:38 13.20783 77.97770 7091 ft 221 kts 194°
2026-04-29 07:38 13.19620 77.96826 7009 ft 216 kts 240°
2026-04-29 07:38 13.19399 77.95339 6925 ft 215 kts 279°
2026-04-29 07:39 13.19787 77.93888 6706 ft 211 kts 290°
2026-04-29 07:39 13.20232 77.92436 6450 ft 211 kts 285°
2026-04-29 07:39 13.20468 77.90969 6193 ft 210 kts 277°
2026-04-29 07:39 13.20555 77.89465 5936 ft 210 kts 272°
2026-04-29 07:40 13.20579 77.87985 5679 ft 208 kts 271°
2026-04-29 07:40 13.20584 77.86512 5417 ft 200 kts 270°
2026-04-29 07:40 13.20587 77.85146 5166 ft 186 kts 271°
2026-04-29 07:40 13.20594 77.83851 4941 ft 180 kts 271°
2026-04-29 07:41 13.20603 77.82575 4723 ft 176 kts 271°
2026-04-29 07:41 13.20612 77.81381 4485 ft 161 kts 271°
2026-04-29 07:41 13.20621 77.80253 4300 ft 158 kts 270°
2026-04-29 07:41 13.20630 77.79119 4115 ft 157 kts 270°
2026-04-29 07:42 13.20639 77.78017 3933 ft 155 kts 270°
2026-04-29 07:42 13.20648 77.76911 3746 ft 154 kts 270°
2026-04-29 07:42 13.20657 77.75819 3565 ft 153 kts 270°
2026-04-29 07:42 13.20665 77.74730 3378 ft 151 kts 270°
2026-04-29 07:43 13.20674 77.73650 3196 ft 150 kts 270°
2026-04-29 07:43 13.20684 77.72577 3014 ft 151 kts 268°
2026-04-29 07:43 13.20690 77.71507 2929 ft 144 kts 270°
2026-04-29 07:43 13.20694 77.70734 2964 ft 72 kts 271°
2026-04-29 07:44 13.20665 77.70409 2980 ft 26 kts 249°
2026-04-29 07:44 13.20581 77.70282 2984 ft 15 kts 189°
2026-04-29 07:44 13.20524 77.70364 2982 ft 14 kts 121°
2026-04-29 07:44 13.20430 77.70391 2981 ft 14 kts 180°
2026-04-29 07:45 13.20323 77.70391 2979 ft 16 kts 181°
2026-04-29 07:45 13.20246 77.70454 2976 ft 16 kts 98°
2026-04-29 07:45 13.20243 77.70575 2975 ft 16 kts 91°
2026-04-29 07:45 13.20242 77.70699 2973 ft 18 kts 90°
2026-04-29 07:46 13.20227 77.70788 2971 ft 10 kts 159°
2026-04-29 07:46 13.20179 77.70795 2972 ft 0 kts 178°